JBU1841 KJFK-KSAV

Flight info

Callsign JBU1841
Flight time N/A
Altitude 38000
Route DCT WAVEY DCT EMJAY Q167 ZJAAY Q97 SAWED DCT GUILD Q409 SESUE DCT SOOOP DCT
Aircraft A320/M-SDE3FGHIRWY/LB1

Departure

Time N/A
Airport John F. Kennedy International Airport (KJFK)

Arrival

Time 2026-04-26 15:27
Airport Savannah Hilton Head International Airport (KSAV)
Time Latitude Longitude Altitude Speed Heading
2026-04-26 14:45 35.21829 -78.30026 38010 ft 406 kts 221°
2026-04-26 14:45 35.18842 -78.32840 38010 ft 406 kts 221°
2026-04-26 14:46 35.14369 -78.37044 38015 ft 406 kts 221°
2026-04-26 14:46 35.09894 -78.41247 38025 ft 406 kts 221°
2026-04-26 14:47 35.05423 -78.45442 38030 ft 406 kts 221°
2026-04-26 14:47 35.00943 -78.49643 38028 ft 406 kts 221°
2026-04-26 14:48 34.96458 -78.53833 38029 ft 406 kts 221°
2026-04-26 14:48 34.91974 -78.58016 37994 ft 406 kts 221°
2026-04-26 14:49 34.87489 -78.62193 37989 ft 406 kts 221°
2026-04-26 14:49 34.83004 -78.66366 38004 ft 406 kts 221°
2026-04-26 14:50 34.78518 -78.70543 38027 ft 406 kts 221°
2026-04-26 14:50 34.74020 -78.74728 38017 ft 407 kts 221°
2026-04-26 14:51 34.69510 -78.78909 37969 ft 408 kts 221°
2026-04-26 14:51 34.64986 -78.83093 37990 ft 409 kts 221°
2026-04-26 14:52 34.61222 -78.86568 38007 ft 409 kts 221°
2026-04-26 14:52 34.56693 -78.90757 38014 ft 409 kts 221°
2026-04-26 14:53 34.52157 -78.94937 38017 ft 410 kts 221°
2026-04-26 14:53 34.47619 -78.99118 37991 ft 410 kts 221°
2026-04-26 14:54 34.43074 -79.03291 37968 ft 410 kts 221°
2026-04-26 14:54 34.38442 -79.07336 37995 ft 411 kts 220°
2026-04-26 14:55 34.33743 -79.11292 37995 ft 412 kts 220°
2026-04-26 14:55 34.29049 -79.15266 38006 ft 412 kts 220°
2026-04-26 14:56 34.24406 -79.19313 37964 ft 410 kts 223°
2026-04-26 14:56 34.19983 -79.23647 37983 ft 409 kts 226°
2026-04-26 14:57 34.15634 -79.28079 37995 ft 409 kts 226°
2026-04-26 14:57 34.11247 -79.32468 38003 ft 410 kts 225°
2026-04-26 14:58 34.06816 -79.36817 38012 ft 411 kts 225°
2026-04-26 14:58 34.02375 -79.41150 38004 ft 410 kts 225°
2026-04-26 14:59 33.97942 -79.45477 37975 ft 410 kts 225°
2026-04-26 14:59 33.93506 -79.49813 37974 ft 411 kts 225°
2026-04-26 15:00 33.89065 -79.54157 37973 ft 411 kts 225°
2026-04-26 15:00 33.84320 -79.58093 37979 ft 420 kts 216°
2026-04-26 15:01 33.79237 -79.61551 37984 ft 420 kts 216°
2026-04-26 15:01 33.74147 -79.65010 37954 ft 421 kts 216°
2026-04-26 15:02 33.69048 -79.68475 37961 ft 421 kts 216°
2026-04-26 15:02 33.63940 -79.71943 37953 ft 422 kts 216°
2026-04-26 15:02 33.61368 -79.73692 37272 ft 427 kts 216°
2026-04-26 15:03 33.58785 -79.75445 36704 ft 426 kts 216°
2026-04-26 15:03 33.56208 -79.77187 36205 ft 424 kts 216°
2026-04-26 15:03 33.53642 -79.78920 35748 ft 422 kts 216°
2026-04-26 15:03 33.51095 -79.80638 35244 ft 420 kts 217°
2026-04-26 15:04 33.48555 -79.82351 34767 ft 418 kts 217°
2026-04-26 15:04 33.46024 -79.84058 34320 ft 416 kts 217°
2026-04-26 15:04 33.43510 -79.85752 33863 ft 413 kts 217°
2026-04-26 15:04 33.41011 -79.87437 33388 ft 410 kts 217°
2026-04-26 15:05 33.38535 -79.89105 32948 ft 407 kts 217°
2026-04-26 15:05 33.36905 -79.90201 32662 ft 405 kts 217°
2026-04-26 15:05 33.33642 -79.92393 32085 ft 400 kts 216°
2026-04-26 15:05 33.31227 -79.94016 31678 ft 396 kts 216°
2026-04-26 15:06 33.28836 -79.95625 31278 ft 393 kts 216°
2026-04-26 15:06 33.26494 -79.97203 30850 ft 391 kts 216°
2026-04-26 15:06 33.24100 -79.98816 30429 ft 389 kts 216°
2026-04-26 15:06 33.21744 -80.00397 30059 ft 387 kts 215°
2026-04-26 15:07 33.17081 -80.03518 29243 ft 382 kts 215°
2026-04-26 15:07 33.14775 -80.05063 28861 ft 379 kts 215°
2026-04-26 15:07 33.12498 -80.06589 28286 ft 373 kts 215°
2026-04-26 15:08 33.10246 -80.08097 27584 ft 369 kts 215°
2026-04-26 15:08 33.08024 -80.09584 26886 ft 364 kts 215°
2026-04-26 15:08 33.05828 -80.11050 26209 ft 360 kts 215°
2026-04-26 15:08 33.03657 -80.12494 25532 ft 355 kts 215°
2026-04-26 15:09 33.01516 -80.13918 25099 ft 351 kts 215°
2026-04-26 15:09 32.99386 -80.15338 24916 ft 350 kts 215°
2026-04-26 15:09 32.97300 -80.16729 24297 ft 346 kts 215°
2026-04-26 15:09 32.95213 -80.18122 23643 ft 342 kts 215°
2026-04-26 15:10 32.93119 -80.19515 22888 ft 339 kts 215°
2026-04-26 15:10 32.91760 -80.20420 22481 ft 337 kts 215°
2026-04-26 15:10 32.89046 -80.22225 22016 ft 332 kts 215°
2026-04-26 15:10 32.87031 -80.23566 21616 ft 331 kts 215°
2026-04-26 15:11 32.85020 -80.24906 21215 ft 331 kts 214°
2026-04-26 15:11 32.83038 -80.26223 20821 ft 330 kts 214°
2026-04-26 15:11 32.81030 -80.27557 20419 ft 331 kts 214°
2026-04-26 15:11 32.79021 -80.28889 20017 ft 330 kts 214°
2026-04-26 15:12 32.76997 -80.30229 19606 ft 328 kts 214°
2026-04-26 15:12 32.75036 -80.31529 19222 ft 326 kts 214°
2026-04-26 15:12 32.73033 -80.32858 18818 ft 325 kts 214°
2026-04-26 15:12 32.71060 -80.34166 18424 ft 324 kts 214°
2026-04-26 15:13 32.69120 -80.35450 18000 ft 324 kts 213°
2026-04-26 15:13 32.67128 -80.36766 17572 ft 322 kts 213°
2026-04-26 15:13 32.65200 -80.38039 17220 ft 319 kts 213°
2026-04-26 15:13 32.63265 -80.39313 16851 ft 317 kts 213°
2026-04-26 15:14 32.61338 -80.40582 16466 ft 316 kts 213°
2026-04-26 15:14 32.59418 -80.41848 16080 ft 315 kts 213°
2026-04-26 15:14 32.57509 -80.43108 15699 ft 314 kts 213°
2026-04-26 15:14 32.55604 -80.44365 15321 ft 312 kts 213°
2026-04-26 15:15 32.53707 -80.45616 14940 ft 311 kts 213°
2026-04-26 15:15 32.51816 -80.46864 14556 ft 311 kts 212°
2026-04-26 15:15 32.49929 -80.48108 14185 ft 310 kts 212°
2026-04-26 15:15 32.48048 -80.49347 13808 ft 309 kts 212°
2026-04-26 15:16 32.46168 -80.50584 13412 ft 308 kts 212°
2026-04-26 15:16 32.44299 -80.51811 13021 ft 306 kts 212°
2026-04-26 15:16 32.42443 -80.53031 12646 ft 304 kts 212°
2026-04-26 15:16 32.40606 -80.54240 12266 ft 302 kts 212°
2026-04-26 15:17 32.38770 -80.55451 11893 ft 300 kts 213°
2026-04-26 15:17 32.37623 -80.56398 11634 ft 297 kts 223°
2026-04-26 15:17 32.35845 -80.58794 11143 ft 291 kts 237°
2026-04-26 15:17 32.34666 -80.60739 10768 ft 291 kts 237°
2026-04-26 15:18 32.33489 -80.62678 10421 ft 290 kts 236°
2026-04-26 15:18 32.32315 -80.64607 10065 ft 288 kts 236°
2026-04-26 15:18 32.31143 -80.66521 9808 ft 285 kts 236°
2026-04-26 15:18 32.29960 -80.68453 9433 ft 286 kts 236°
2026-04-26 15:19 32.28819 -80.70315 9207 ft 282 kts 236°
2026-04-26 15:19 32.27670 -80.72191 8808 ft 279 kts 236°
2026-04-26 15:19 32.26535 -80.74046 8246 ft 276 kts 236°
2026-04-26 15:19 32.25433 -80.75847 7873 ft 266 kts 236°
2026-04-26 15:20 32.24350 -80.77619 7537 ft 266 kts 236°
2026-04-26 15:20 32.23268 -80.79388 7195 ft 266 kts 236°
2026-04-26 15:20 32.22183 -80.81158 6849 ft 265 kts 236°
2026-04-26 15:20 32.21102 -80.82922 6503 ft 265 kts 236°
2026-04-26 15:21 32.20021 -80.84685 6144 ft 265 kts 236°
2026-04-26 15:21 32.18941 -80.86444 5791 ft 261 kts 236°
2026-04-26 15:21 32.17900 -80.88137 5460 ft 249 kts 236°
2026-04-26 15:21 32.16906 -80.89752 5146 ft 237 kts 236°
2026-04-26 15:22 32.15963 -80.91286 4835 ft 226 kts 236°
2026-04-26 15:22 32.15055 -80.92761 4549 ft 218 kts 236°
2026-04-26 15:22 32.14169 -80.94201 4237 ft 217 kts 236°
2026-04-26 15:22 32.13286 -80.95638 3954 ft 215 kts 237°
2026-04-26 15:23 32.12695 -80.97220 3673 ft 210 kts 261°
2026-04-26 15:23 32.12639 -80.98919 3431 ft 204 kts 272°
2026-04-26 15:23 32.12661 -81.00565 3148 ft 197 kts 272°
2026-04-26 15:23 32.12678 -81.02162 2904 ft 193 kts 272°
2026-04-26 15:24 32.12695 -81.03736 2651 ft 191 kts 272°
2026-04-26 15:24 32.12711 -81.05299 2396 ft 189 kts 272°
2026-04-26 15:24 32.12725 -81.06825 2142 ft 181 kts 273°
2026-04-26 15:24 32.12738 -81.08255 1908 ft 169 kts 272°
2026-04-26 15:25 32.12750 -81.09590 1672 ft 156 kts 273°
2026-04-26 15:25 32.12758 -81.10415 1533 ft 147 kts 271°
2026-04-26 15:25 32.12774 -81.11962 1293 ft 138 kts 272°
2026-04-26 15:25 32.12786 -81.13080 1102 ft 136 kts 272°
2026-04-26 15:26 32.12800 -81.14185 964 ft 135 kts 271°
2026-04-26 15:26 32.12804 -81.15298 811 ft 135 kts 271°
2026-04-26 15:26 32.12815 -81.16411 609 ft 135 kts 272°
2026-04-26 15:26 32.12826 -81.17529 400 ft 137 kts 275°
2026-04-26 15:27 32.12843 -81.18649 135 ft 136 kts 275°
2026-04-26 15:27 32.12857 -81.19732 47 ft 120 kts 269°
2026-04-26 15:27 32.12865 -81.20549 42 ft 81 kts 270°
2026-04-26 15:27 32.12866 -81.20999 42 ft 25 kts 269°
2026-04-26 15:28 32.12915 -81.21074 44 ft 12 kts
2026-04-26 15:28 32.12986 -81.21070 50 ft 9 kts
2026-04-26 15:28 32.13043 -81.21025 52 ft 13 kts 88°
2026-04-26 15:28 32.13041 -81.20907 52 ft 16 kts 91°
2026-04-26 15:29 32.13039 -81.20758 52 ft 20 kts 89°
2026-04-26 15:29 32.13039 -81.20582 52 ft 23 kts 91°
2026-04-26 15:29 32.13069 -81.20329 53 ft 12 kts
2026-04-26 15:30 32.13310 -81.20331 54 ft 21 kts 360°
2026-04-26 15:30 32.13466 -81.20331 54 ft 24 kts 360°
2026-04-26 15:30 32.13608 -81.20333 54 ft 15 kts
2026-04-26 15:31 32.13670 -81.20383 52 ft 13 kts 272°
2026-04-26 15:31 32.13639 -81.20570 54 ft 9 kts 226°
2026-04-26 15:31 32.13609 -81.20606 54 ft 2 kts 226°
2026-04-26 15:32 32.13607 -81.20608 54 ft 0 kts 226°
2026-04-26 15:59 32.13612 -81.20602 63 ft 4 kts 224°
2026-04-26 15:59 32.13633 -81.20582 51 ft 4 kts 207°
2026-04-26 15:59 32.13657 -81.20574 52 ft 4 kts 171°
2026-04-26 15:59 32.13673 -81.20581 50 ft 1 kts 134°
2026-04-26 16:00 32.13675 -81.20584 54 ft 0 kts 134°
2026-04-26 16:03 32.13667 -81.20574 51 ft 3 kts 134°
2026-04-26 16:03 32.13645 -81.20547 51 ft 6 kts 134°
2026-04-26 16:03 32.13609 -81.20504 54 ft 9 kts 135°
2026-04-26 16:03 32.13571 -81.20438 54 ft 11 kts 98°
2026-04-26 16:04 32.13570 -81.20334 54 ft 14 kts 90°
2026-04-26 16:04 32.13571 -81.20206 53 ft 17 kts 89°
2026-04-26 16:04 32.13571 -81.20051 51 ft 20 kts 91°
2026-04-26 16:04 32.13555 -81.19904 52 ft 12 kts 93°
2026-04-26 16:05 32.13521 -81.19820 53 ft 13 kts 171°
2026-04-26 16:05 32.13421 -81.19819 53 ft 16 kts 180°
2026-04-26 16:05 32.13302 -81.19819 53 ft 18 kts 179°
2026-04-26 16:05 32.13163 -81.19817 53 ft 21 kts 179°
2026-04-26 16:06 32.13048 -81.19815 52 ft 13 kts 174°
2026-04-26 16:06 32.13002 -81.19725 50 ft 15 kts 105°
2026-04-26 16:06 32.12971 -81.19594 50 ft 18 kts 105°
2026-04-26 16:06 32.12964 -81.19433 50 ft 21 kts 91°
2026-04-26 16:07 32.12963 -81.19254 50 ft 23 kts 90°
2026-04-26 16:07 32.12961 -81.19060 49 ft 24 kts 90°
2026-04-26 16:07 32.12957 -81.18905 48 ft 11 kts 105°
2026-04-26 16:07 32.12881 -81.18873 40 ft 10 kts 181°
2026-04-26 16:08 32.12849 -81.18922 38 ft 10 kts 269°
2026-04-26 16:08 32.12850 -81.19028 39 ft 37 kts 272°
2026-04-26 16:08 32.12858 -81.19925 42 ft 125 kts 271°
2026-04-26 16:08 32.12875 -81.21165 113 ft 170 kts 272°
2026-04-26 16:09 32.12898 -81.22552 791 ft 167 kts 274°
2026-04-26 16:09 32.13183 -81.23848 1542 ft 163 kts 301°
2026-04-26 16:09 32.14009 -81.24781 2077 ft 173 kts 332°
2026-04-26 16:09 32.15227 -81.25082 2491 ft 190 kts
2026-04-26 16:10 32.16529 -81.24587 2931 ft 207 kts 30°
2026-04-26 16:10 32.17658 -81.23436 3435 ft 222 kts 41°
2026-04-26 16:10 32.18846 -81.22138 3837 ft 245 kts 36°
2026-04-26 16:10 32.20398 -81.21142 4373 ft 264 kts 22°
2026-04-26 16:11 32.22088 -81.20217 5281 ft 271 kts 22°
2026-04-26 16:11 32.23804 -81.19271 6218 ft 275 kts 22°
2026-04-26 16:11 32.25547 -81.18299 7123 ft 279 kts 22°
2026-04-26 16:11 32.27318 -81.17308 8034 ft 284 kts 22°
2026-04-26 16:12 32.29114 -81.16305 8946 ft 288 kts 22°
2026-04-26 16:12 32.30847 -81.15072 9804 ft 297 kts 39°
2026-04-26 16:12 32.33856 -81.11322 10678 ft 333 kts 45°
2026-04-26 16:13 32.35438 -81.09269 11288 ft 341 kts 45°
2026-04-26 16:13 32.37037 -81.07177 12014 ft 345 kts 45°
2026-04-26 16:13 32.38657 -81.05056 12747 ft 350 kts 45°
2026-04-26 16:13 32.40299 -81.02913 13474 ft 354 kts 45°
2026-04-26 16:14 32.41967 -81.00745 14139 ft 358 kts 45°
2026-04-26 16:14 32.43654 -80.98553 14787 ft 362 kts 45°
2026-04-26 16:14 32.47079 -80.94105 16088 ft 369 kts 44°
2026-04-26 16:15 32.48816 -80.91851 16708 ft 373 kts 44°
2026-04-26 16:15 32.50000 -80.90313 17147 ft 375 kts 44°
2026-04-26 16:15 32.51766 -80.88016 17812 ft 379 kts 44°
2026-04-26 16:16 32.55353 -80.83342 19014 ft 387 kts 44°
2026-04-26 16:16 32.57173 -80.80966 19593 ft 391 kts 44°
2026-04-26 16:16 32.59015 -80.78565 20140 ft 396 kts 44°
2026-04-26 16:16 32.60881 -80.76130 20669 ft 401 kts 43°
2026-04-26 16:17 32.62767 -80.73667 21184 ft 406 kts 43°
2026-04-26 16:17 32.64673 -80.71175 21688 ft 410 kts 43°
2026-04-26 16:17 32.66600 -80.68653 22180 ft 415 kts 43°
2026-04-26 16:17 32.68550 -80.66102 22699 ft 420 kts 43°
2026-04-26 16:18 32.70524 -80.63518 23209 ft 424 kts 43°
2026-04-26 16:18 32.74585 -80.58345 24116 ft 431 kts 41°
2026-04-26 16:19 32.78813 -80.53237 25073 ft 435 kts 40°
2026-04-26 16:19 32.80942 -80.50677 25630 ft 436 kts 40°
2026-04-26 16:19 32.85175 -80.45530 26535 ft 441 kts 41°
2026-04-26 16:20 32.87343 -80.42871 26970 ft 443 kts 41°
2026-04-26 16:20 32.91651 -80.37566 27805 ft 448 kts 41°
2026-04-26 16:20 32.93822 -80.34886 28209 ft 450 kts 41°
2026-04-26 16:21 32.96001 -80.32195 28607 ft 453 kts 41°
2026-04-26 16:21 32.98164 -80.29525 29020 ft 455 kts 41°
2026-04-26 16:21 33.00367 -80.26808 29434 ft 458 kts 41°
2026-04-26 16:21 33.02586 -80.24065 29827 ft 460 kts 41°
2026-04-26 16:22 33.04812 -80.21310 30204 ft 463 kts 41°
2026-04-26 16:22 33.07048 -80.18541 30551 ft 464 kts 41°
2026-04-26 16:22 33.09291 -80.15763 30891 ft 466 kts 41°
2026-04-26 16:22 33.11548 -80.12968 31228 ft 468 kts 41°
2026-04-26 16:23 33.13810 -80.10171 31567 ft 470 kts 40°
2026-04-26 16:23 33.16074 -80.07363 32013 ft 468 kts 40°
2026-04-26 16:23 33.18323 -80.04570 32517 ft 466 kts 40°
2026-04-26 16:23 33.20560 -80.01784 33026 ft 464 kts 40°
2026-04-26 16:24 33.22784 -79.99010 33535 ft 461 kts 40°
2026-04-26 16:24 33.24997 -79.96250 34049 ft 459 kts 39°
2026-04-26 16:24 33.27203 -79.93502 34476 ft 457 kts 39°
2026-04-26 16:24 33.29405 -79.90760 34839 ft 457 kts 39°
2026-04-26 16:25 33.31614 -79.88010 34951 ft 456 kts 39°
2026-04-26 16:25 33.33792 -79.85289 34974 ft 450 kts 39°
2026-04-26 16:25 33.38100 -79.79900 34969 ft 447 kts 39°
2026-04-26 16:26 33.42409 -79.74512 34970 ft 449 kts 39°
2026-04-26 16:26 33.46722 -79.69110 34974 ft 449 kts 39°